Location: Suburban Lights Observatory
(43.1572°N, 89.2764°W)
Time: 23:43:22
(UTC-05:00)

Daily predictions for brighter satellites

Satellite Brightness Start Highest point End
(mag) Time Altitude Azimuth Time Altitude Azimuth Time Altitude Azimuth
Iridium 4 Rocket 4.5 20:04:33 10° NNE 20:08:46 25° ENE 20:12:41 10° SE
Cosmos 1536 3.3 20:05:38 10° SSW 20:09:36 68° W 20:13:38 10° N
Meteor 1-5 Rocket 4.2 20:05:10 10° S 20:10:24 59° E 20:15:46 10° NNE
Cosmos 2082 3.9 20:05:37 10° NNW 20:11:08 54° ENE 20:16:38 10° SE
ALOS 2.3 20:06:58 10° SSE 20:11:34 64° ENE 20:16:13 10° N
Cosmos 2297 Rocket 2.7 20:06:53 10° NNW 20:12:18 44° ENE 20:17:40 10° SE
RESURS DK-1 4.3 20:15:48 10° N 20:18:23 16° NE 20:20:57 10° E
Cosmos 1934 Rocket 4.0 20:14:19 10° S 20:20:25 75° E 20:26:39 10° N
Resurs 01 Rocket 2.8 20:16:30 10° S 20:20:45 46° W 20:25:03 10° NNW
DELTA 2 R/B (1) 3.8 20:20:28 10° W 20:25:56 58° S 20:31:01 12° ESE
USA 186 1.6 20:23:19 10° SSE 20:26:26 60° ENE 20:29:20 10° N
NOSS 2-1 (D) 4.3 20:24:05 10° SW 20:27:54 53° NW 20:32:21 10° NNE
NOSS 2-1 (C) 4.3 20:25:07 10° SW 20:28:56 54° NW 20:33:23 10° NNE
Cosmos 1544 Rocket 3.8 20:25:33 10° SSW 20:29:54 75° W 20:34:21 10° N
ERS-1 Rocket 3.6 20:28:15 10° SE 20:32:50 38° ENE 20:37:28 10° N
Cosmos 1898 Rocket 4.1 20:34:18 10° N 20:39:21 41° ENE 20:43:27 15° SE
OTV 4 2.2 20:37:08 10° WSW 20:39:29 21° SSW 20:41:08 14° SSE
Cosmos 1743 4.3 20:40:01 16° ESE 20:41:04 17° E 20:43:40 10° NE
BREEZE-M DEB (TANK) 4.3 20:38:31 10° SW 20:42:37 67° SE 20:57:27 10° ENE
Lacrosse 5 2.6 20:39:35 10° NW 20:44:25 42° NNE 20:48:07 16° E
Tiangong 1 0.9 20:42:51 10° W 20:45:58 86° S 20:47:55 20° E
Cosmos 1697 Rocket 3.1 20:45:48 10° S 20:51:00 39° ESE 20:56:12 10° NE
SPOT 5 3.9 20:50:57 18° ESE 20:53:38 29° ENE 20:57:46 10° N
Cosmos 1975 2.8 20:51:19 10° S 20:55:25 76° E 20:59:32 10° NNE
Cosmos 2278 4.0 20:50:13 10° SSW 20:55:53 73° WNW 21:01:37 10° NNE
EO 1 Delta rocket 4.3 20:51:29 10° N 20:56:07 71° WNW 21:01:22 10° SSW
Cosmos 468 Rocket 4.2 20:53:04 10° S 20:57:54 44° ESE 21:02:46 10° NNE
SL-24 R/B - RUBIN 2 4.3 20:54:49 10° SSW 21:00:35 65° ESE 21:07:01 10° NE
Cosmos 2173 Rocket 4.3 20:57:16 10° SSE 21:03:16 46° E 21:09:15 10° NNE
H-2A R/B 4.2 20:59:47 10° SSW 21:03:26 39° W 21:07:08 10° NNW
Lacrosse 5 rocket 1.5 20:59:53 10° NW 21:03:33 55° SW 21:05:31 24° SSE
USA 215 4.3 21:00:24 11° E 21:05:57 36° NNE 21:11:46 10° NW
Cosmos 1814 Rocket 4.3 21:02:09 10° S 21:07:14 46° ESE 21:12:18 10° NNE
Cosmos 1605 Rocket 4.4 21:01:09 10° SSW 21:07:27 69° W 21:13:43 10° N
Cosmos 2369 4.2 21:04:01 10° SW 21:09:38 64° WNW 21:15:20 10° NNE
Cosmos 1825 Rocket 4.1 21:06:46 10° N 21:10:58 40° ENE 21:12:29 30° ESE
CZ-4 DEB 2.9 21:11:14 22° S 21:13:06 68° WSW 21:16:14 10° NNW
Cosmos 1980 Rocket 2.7 21:08:28 10° S 21:13:35 36° ESE 21:18:46 10° NE
ARGOS 4.3 21:12:12 22° E 21:14:01 27° ENE 21:18:26 10° N
Cosmos 2100 Rocket 4.0 21:09:04 10° S 21:15:15 62° E 21:21:23 10° NNE
YAOGAN 11 4.4 21:14:07 14° S 21:17:59 71° WSW 21:22:28 10° NNW
Cosmos 2061 Rocket 4.0 21:13:04 10° S 21:19:14 60° E 21:25:24 10° NNE
Cosmos 1953 Rocket 4.2 21:16:24 10° N 21:20:34 38° ENE 21:21:30 34° ESE
Cosmos 858 Rocket 4.5 21:18:17 10° NNW 21:23:37 88° ENE 21:26:37 27° SSE
H-2A R/B 1.9 21:23:39 38° SE 21:25:01 63° ENE 21:29:08 10° N
Terra 3.8 21:28:05 14° ENE 21:28:22 14° ENE 21:30:46 10° NNE
Cosmos 1939 Rocket 3.1 21:26:45 25° S 21:29:06 72° WSW 21:33:17 10° NNW
Cosmos 1666 4.3 21:31:54 22° NE 21:31:54 22° NE 21:33:47 10° NNE
MetOp-B 4.3 21:28:30 33° SE 21:30:40 56° ENE 21:35:54 10° N
OAO 2 Rocket 4.1 21:27:56 10° WSW 21:32:26 33° S 21:33:01 32° SSE
Cosmos 2298 Rocket 4.4 21:27:52 10° NNW 21:33:08 64° WSW 21:36:31 22° S
deb Chang Zheng 4 3.5 21:32:49 10° NNE 21:37:18 75° ESE 21:39:28 30° S
Nimbus 7 Rocket 4.4 21:31:38 10° NNE 21:37:42 71° ESE 21:43:22 12° S
ASTEX 1 3.5 21:33:04 10° NNE 21:38:00 55° E 21:39:19 42° SE
Cosmos 1758 Rocket 3.7 21:35:18 10° N 21:39:34 50° ENE 21:39:53 49° E
Cosmos 2263 Rocket 3.8 21:36:30 10° N 21:40:26 19° NE 21:41:51 18° ENE
Meteor 1-21 4.2 21:34:40 10° N 21:40:27 72° E 21:42:53 36° SSE
Cosmos 2227 Rocket 4.0 21:35:55 10° NW 21:40:36 27° WSW 21:45:17 10° SSW
Envisat 3.2 21:37:26 23° S 21:40:37 68° WSW 21:45:42 10° NNW
Cosmos 1500 4.2 21:37:45 10° SSW 21:41:22 45° WNW 21:45:01 10° N
Cosmos 1656 4.2 21:37:41 10° SW 21:43:14 60° WNW 21:48:44 10° NNE
Cosmos 1937 Rocket 3.6 21:39:02 10° NNW 21:44:19 77° WSW 21:46:32 36° S
Cosmos 2322 Rocket 3.7 21:48:05 20° ENE 21:48:05 20° ENE 21:50:22 10° NE
H-2A R/B 3.1 21:48:51 26° ENE 21:48:56 26° ENE 21:53:02 10° N
Cosmos 1725 Rocket 4.1 21:47:52 41° SE 21:49:30 51° E 21:55:29 10° NNE
Cosmos 1459 Rocket 4.0 21:44:04 10° SSW 21:50:07 78° W 21:56:15 10° N
Cosmos 2084 4.2 21:46:39 10° NW 21:50:33 42° WSW 21:51:25 37° SSW
Cosmos 1340 2.6 21:49:24 10° NNW 21:53:13 80° W 21:53:18 79° WSW
Cosmos 2360 4.2 21:53:08 45° SSE 21:54:30 56° ESE 22:00:07 10° NNE
Cosmos 2297 Rocket 3.8 21:51:21 10° NW 21:56:06 29° WSW 22:00:22 12° SSW
Meteor 2-9 Rocket 4.2 21:56:00 52° SE 21:56:42 56° E 22:02:00 10° NNE
RESURS DK-1 2.7 21:52:44 10° NW 21:56:49 57° WSW 21:57:19 53° SW
Cosmos 990 Rocket 4.0 21:53:10 10° NNW 21:58:27 78° WSW 21:59:50 50° S
YAOGAN 6 2.8 22:01:27 70° NW 22:01:27 70° NW 22:04:53 10° NNW
Cosmos 2227 4.1 21:55:35 10° NNW 22:01:23 83° ENE 22:02:41 55° SE
Cosmos 2098 Rocket 4.0 21:58:17 35° S 22:01:23 71° E 22:07:15 10° NNE
CZ-4B R/B 3.9 21:58:22 10° NNE 22:02:02 42° ENE 22:02:02 42° ENE
Cosmos 2058 Rocket 3.1 22:03:28 69° ENE 22:03:28 69° ENE 22:07:42 10° NNE
SPOT 1/Viking Rocket 3.4 22:07:00 65° SE 22:07:47 81° ENE 22:13:01 10° NNW
Cosmos 1606 Rocket 4.0 22:11:06 44° SW 22:12:11 58° W 22:16:35 10° N
SL-19 R/B 4.0 22:08:47 10° NNE 22:14:19 83° ESE 22:15:14 63° S
Cosmos 2233 Rocket 4.2 22:15:54 50° E 22:15:54 50° E 22:21:52 10° NNE
Cosmos 1743 4.3 22:15:07 24° WSW 22:16:38 33° WNW 22:20:13 10° N
Tiangong 1 4.0 22:19:22 10° W 22:19:53 14° W 22:19:53 14° W
Cosmos 1763 Rocket 3.8 22:23:18 34° SW 22:25:27 62° WNW 22:30:30 10° NNE
Lacrosse 5 2.7 22:22:39 10° WNW 22:27:19 40° SW 22:27:19 40° SW
Cosmos 1125 Rocket 3.4 22:22:31 10° NNW 22:27:33 77° NE 22:27:33 77° NE
BREEZE-M DEB (TANK) 3.8 22:28:09 10° WNW 22:29:28 30° W 22:29:28 30° W
SPOT 5 4.2 22:30:12 30° SW 22:31:35 35° W 22:36:02 10° NNW
Cosmos 1697 Rocket 4.3 22:29:56 10° WSW 22:35:01 33° NW 22:40:06 10° N
SL-08 RB Rocket 4.2 22:39:37 59° WNW 22:39:37 59° WNW 22:43:43 10° NNW
SL-16 R/B 2.7 22:42:47 47° NE 22:42:47 47° NE 22:46:52 10° NNE
Cosmos 841 Rocket 4.4 22:45:14 32° WSW 22:47:10 47° WNW 22:52:13 10° N
USA 215 3.1 22:47:45 72° ESE 22:48:27 83° NE 22:55:02 10° NW
Landsat 7 4.4 22:51:08 55° NW 22:51:08 55° NW 22:54:56 10° NNW
ARGOS 3.9 22:53:43 43° WSW 22:54:00 44° W 22:59:09 10° NNW
Cosmos 1980 Rocket 3.6 22:52:24 10° WSW 22:57:35 35° NW 23:02:48 10° N
Cosmos 2360 Rocket 4.1 23:01:28 19° NE 23:01:28 19° NE 23:03:06 10° NE
Terra 2.8 23:06:58 44° NNW 23:06:58 44° NNW 23:10:17 10° NNW
BREEZE-M DEB (TANK) 4.1 22:38:43 10° WNW 23:06:15 87° SSW 23:07:28 68° SE
Cosmos 540 Rocket 4.5 23:08:30 41° N 23:08:30 41° N 23:11:51 10° NNE
Meteor 2-5 Rocket 4.0 23:01:04 10° N 23:06:17 70° NNW 23:06:17 70° NNW
Cosmos 2263 Rocket 2.9 23:19:25 10° NNW 23:23:33 50° NW 23:23:33 50° NW
BREEZE-M DEB (TANK) 3.9 23:12:11 10° WNW 23:24:47 64° W 23:24:47 64° W
H-2A R/B 3.4 23:29:29 32° WNW 23:29:29 32° WNW 23:32:49 10° NNW
Cosmos 2322 Rocket 3.0 23:29:50 47° NW 23:29:50 47° NW 23:34:59 10° NNE
Meteor 1-24 Rocket 4.3 23:24:11 10° N 23:28:57 57° N 23:28:57 57° N
